Location: Bacharowice
(49.9333°N, 19.5833°E)
Time: 03:07:05
(UTC+00:00)

Cosmos 44 Rocket - Pass Details

Date: 11 May 2021
Orbit: 636 x 753 km, 65.1° (Epoch: 21 June)

Event Time Altitude Azimuth Distance (km) Brightness Sun altitude
Rises 23:22:38 0° 318° (NW) 3,215 7.2 -21.2°
Reaches altitude 10° 23:25:04 10° 315° (NW) 2,284 6.4 -21.1°
Maximum altitude 23:30:13 61° 237° (WSW) 849 3.4 -21.0°
Enters shadow 23:31:24 48° 186° (S) 973 3.6 -20.9°
